Year,Month,Day,Hour,Minute,Value (Times are PST for temperature in C)
2016,04,07,00,00,10.30
2016,04,07,00,01,10.40
2016,04,07,00,02,10.40
2016,04,07,00,03,10.40
2016,04,07,00,04,10.40
2016,04,07,00,05,10.30
2016,04,07,00,06,10.30
2016,04,07,00,07,10.30
2016,04,07,00,08,10.30
2016,04,07,00,09,10.30
2016,04,07,00,10,10.30
2016,04,07,00,11,10.30
2016,04,07,00,12,10.30
2016,04,07,00,13,10.30
2016,04,07,00,14,10.30
2016,04,07,00,15,10.30
2016,04,07,00,16,10.30
2016,04,07,00,17,10.20
2016,04,07,00,18,10.20
2016,04,07,00,19,10.20
2016,04,07,00,20,10.20
2016,04,07,00,21,10.20
2016,04,07,00,22,10.20
2016,04,07,00,23,10.20
2016,04,07,00,24,10.20
2016,04,07,00,25,10.20
2016,04,07,00,26,10.20
2016,04,07,00,27,10.20
2016,04,07,00,28,10.20
2016,04,07,00,29,10.20
2016,04,07,00,30,10.20
2016,04,07,00,31,10.20
2016,04,07,00,32,10.20
2016,04,07,00,33,10.20
2016,04,07,00,34,10.20
2016,04,07,00,35,10.20
2016,04,07,00,36,10.20
2016,04,07,00,37,10.20
2016,04,07,00,38,10.20
2016,04,07,00,39,10.20
2016,04,07,00,40,10.20
2016,04,07,00,41,10.20
2016,04,07,00,42,10.20
2016,04,07,00,43,10.20
2016,04,07,00,44,10.20
2016,04,07,00,45,10.20
2016,04,07,00,46,10.20
2016,04,07,00,47,10.30
2016,04,07,00,48,10.30
2016,04,07,00,49,10.30
2016,04,07,00,50,10.30
2016,04,07,00,51,10.30
2016,04,07,00,52,10.30
2016,04,07,00,53,10.30
2016,04,07,00,54,10.30
2016,04,07,00,55,10.20
2016,04,07,00,56,10.20
2016,04,07,00,57,10.20
2016,04,07,00,58,10.20
2016,04,07,00,59,10.10
2016,04,07,01,00,10.10
2016,04,07,01,01,10.10
2016,04,07,01,02,10.10
2016,04,07,01,03,10.10
2016,04,07,01,04,10.10
2016,04,07,01,05,10.10
2016,04,07,01,06,10.10
2016,04,07,01,07,10.10
2016,04,07,01,08,10.10
2016,04,07,01,09,9.90
2016,04,07,01,10,9.80
2016,04,07,01,11,9.80
2016,04,07,01,12,9.80
2016,04,07,01,13,9.70
2016,04,07,01,14,9.70
2016,04,07,01,15,9.70
2016,04,07,01,16,9.70
2016,04,07,01,17,9.70
2016,04,07,01,18,9.70
2016,04,07,01,19,9.70
2016,04,07,01,20,9.60
2016,04,07,01,21,9.60
2016,04,07,01,22,9.60
2016,04,07,01,23,9.60
2016,04,07,01,24,9.60
2016,04,07,01,25,9.50
2016,04,07,01,26,9.50
2016,04,07,01,27,9.40
2016,04,07,01,28,9.40
2016,04,07,01,29,9.40
2016,04,07,01,30,9.40
2016,04,07,01,31,9.40
2016,04,07,01,32,9.30
2016,04,07,01,33,9.30
2016,04,07,01,34,9.30
2016,04,07,01,35,9.30
2016,04,07,01,36,9.30
2016,04,07,01,37,9.30
2016,04,07,01,38,9.30
2016,04,07,01,39,9.20
2016,04,07,01,40,9.20
2016,04,07,01,41,9.20
2016,04,07,01,42,9.20
2016,04,07,01,43,9.10
2016,04,07,01,44,9.10
2016,04,07,01,45,9.10
2016,04,07,01,46,9.00
2016,04,07,01,47,9.00
2016,04,07,01,48,9.00
2016,04,07,01,49,8.90
2016,04,07,01,50,8.90
2016,04,07,01,51,8.90
2016,04,07,01,52,8.90
2016,04,07,01,53,8.90
2016,04,07,01,54,8.90
2016,04,07,01,55,8.90
2016,04,07,01,56,8.90
2016,04,07,01,57,8.90
2016,04,07,01,58,8.90
2016,04,07,01,59,8.90
2016,04,07,02,00,8.90
2016,04,07,02,01,8.90
2016,04,07,02,02,8.90
2016,04,07,02,03,9.00
2016,04,07,02,04,9.00
2016,04,07,02,05,8.90
2016,04,07,02,06,8.90
2016,04,07,02,07,8.90
2016,04,07,02,08,8.90
2016,04,07,02,09,8.80
2016,04,07,02,10,8.80
2016,04,07,02,11,8.70
2016,04,07,02,12,8.70
2016,04,07,02,13,8.60
2016,04,07,02,14,8.60
2016,04,07,02,15,8.60
2016,04,07,02,16,8.60
2016,04,07,02,17,8.50
2016,04,07,02,18,8.50
2016,04,07,02,19,8.50
2016,04,07,02,20,8.40
2016,04,07,02,21,8.30
2016,04,07,02,22,8.30
2016,04,07,02,23,8.30
2016,04,07,02,24,8.30
2016,04,07,02,25,8.30
2016,04,07,02,26,8.20
2016,04,07,02,27,8.20
2016,04,07,02,28,8.20
2016,04,07,02,29,8.20
2016,04,07,02,30,8.20
2016,04,07,02,31,8.20
2016,04,07,02,32,8.20
2016,04,07,02,33,8.20
2016,04,07,02,34,8.20
2016,04,07,02,35,8.20
2016,04,07,02,36,8.20
2016,04,07,02,37,8.20
2016,04,07,02,38,8.20
2016,04,07,02,39,8.20
2016,04,07,02,40,8.20
2016,04,07,02,41,8.20
2016,04,07,02,42,8.20
2016,04,07,02,43,8.30
2016,04,07,02,44,8.30
2016,04,07,02,45,8.40
2016,04,07,02,46,8.40
2016,04,07,02,47,8.50
2016,04,07,02,48,8.50
2016,04,07,02,49,8.50
2016,04,07,02,50,8.60
2016,04,07,02,51,8.60
2016,04,07,02,52,8.60
2016,04,07,02,53,8.70
2016,04,07,02,54,8.70
2016,04,07,02,55,8.80
2016,04,07,02,56,8.80
2016,04,07,02,57,8.80
2016,04,07,02,58,8.80
2016,04,07,02,59,8.80
2016,04,07,03,00,8.80
2016,04,07,03,01,8.80
2016,04,07,03,02,8.90
2016,04,07,03,03,8.90
2016,04,07,03,04,8.90
2016,04,07,03,05,8.90
2016,04,07,03,06,9.00
2016,04,07,03,07,9.00
2016,04,07,03,08,9.00
2016,04,07,03,09,9.10
2016,04,07,03,10,9.10
2016,04,07,03,11,9.10
2016,04,07,03,12,9.10
2016,04,07,03,13,9.10
2016,04,07,03,14,9.10
2016,04,07,03,15,9.10
2016,04,07,03,16,9.10
2016,04,07,03,17,9.10
2016,04,07,03,18,9.20
2016,04,07,03,19,9.20
2016,04,07,03,20,9.20
2016,04,07,03,21,9.20
2016,04,07,03,22,9.20
2016,04,07,03,23,9.20
2016,04,07,03,24,9.20
2016,04,07,03,25,9.20
2016,04,07,03,26,9.20
2016,04,07,03,27,9.20
2016,04,07,03,28,9.30
2016,04,07,03,29,9.30
2016,04,07,03,30,9.30
2016,04,07,03,31,9.30
2016,04,07,03,32,9.30
2016,04,07,03,33,9.30
2016,04,07,03,34,9.40
2016,04,07,03,35,9.40
2016,04,07,03,36,9.50
2016,04,07,03,37,9.50
2016,04,07,03,38,9.60
2016,04,07,03,39,9.60
2016,04,07,03,40,9.60
2016,04,07,03,41,9.70
2016,04,07,03,42,9.70
2016,04,07,03,43,9.70
2016,04,07,03,44,9.70
2016,04,07,03,45,9.70
2016,04,07,03,46,9.80
2016,04,07,03,47,9.80
2016,04,07,03,48,9.80
2016,04,07,03,49,9.80
2016,04,07,03,50,9.90
2016,04,07,03,51,9.90
2016,04,07,03,52,10.00
2016,04,07,03,53,10.00
2016,04,07,03,54,10.00
2016,04,07,03,55,10.10
2016,04,07,03,56,10.10
2016,04,07,03,57,10.10
2016,04,07,03,58,10.10
2016,04,07,03,59,10.10
2016,04,07,04,00,10.10
2016,04,07,04,01,10.10
2016,04,07,04,02,10.10
2016,04,07,04,03,10.10
2016,04,07,04,04,10.20
2016,04,07,04,05,10.20
2016,04,07,04,06,10.20
2016,04,07,04,07,10.20
2016,04,07,04,08,10.10
2016,04,07,04,09,10.10
2016,04,07,04,10,10.10
2016,04,07,04,11,10.10
2016,04,07,04,12,10.10
2016,04,07,04,13,10.10
2016,04,07,04,14,10.10
2016,04,07,04,15,10.10
2016,04,07,04,16,10.10
2016,04,07,04,17,10.10
2016,04,07,04,18,10.10
2016,04,07,04,19,10.20
2016,04,07,04,20,10.20
2016,04,07,04,21,10.20
2016,04,07,04,22,10.30
2016,04,07,04,23,10.30
2016,04,07,04,24,10.30
2016,04,07,04,25,10.30
2016,04,07,04,26,10.40
2016,04,07,04,27,10.40
2016,04,07,04,28,10.40
2016,04,07,04,29,10.50
2016,04,07,04,30,10.50
2016,04,07,04,31,10.60
2016,04,07,04,32,10.60
2016,04,07,04,33,10.60
2016,04,07,04,34,10.60
2016,04,07,04,35,10.50
2016,04,07,04,36,10.50
2016,04,07,04,37,10.40
2016,04,07,04,38,10.40
2016,04,07,04,39,10.30
2016,04,07,04,40,10.30
2016,04,07,04,41,10.20
2016,04,07,04,42,10.20
2016,04,07,04,43,10.20
2016,04,07,04,44,10.10
2016,04,07,04,45,10.10
2016,04,07,04,46,10.00
2016,04,07,04,47,10.00
2016,04,07,04,48,10.00
2016,04,07,04,49,10.00
2016,04,07,04,50,10.00
2016,04,07,04,51,10.00
2016,04,07,04,52,9.90
2016,04,07,04,53,9.90
2016,04,07,04,54,9.90
2016,04,07,04,55,9.90
2016,04,07,04,56,9.90
2016,04,07,04,57,9.80
2016,04,07,04,58,9.80
2016,04,07,04,59,9.80
2016,04,07,05,00,9.80
2016,04,07,05,01,9.80
2016,04,07,05,02,9.80
2016,04,07,05,03,9.80
2016,04,07,05,04,9.80
2016,04,07,05,05,9.80
2016,04,07,05,06,9.80
2016,04,07,05,07,9.80
2016,04,07,05,08,9.90
2016,04,07,05,09,9.90
2016,04,07,05,10,9.90
2016,04,07,05,11,9.90
2016,04,07,05,12,9.90
2016,04,07,05,13,10.00
2016,04,07,05,14,10.00
2016,04,07,05,15,10.10
2016,04,07,05,16,10.10
2016,04,07,05,17,10.10
2016,04,07,05,18,10.20
2016,04,07,05,19,10.20
2016,04,07,05,20,10.40
2016,04,07,05,21,10.50
2016,04,07,05,22,10.60
2016,04,07,05,23,10.60
2016,04,07,05,24,10.60
2016,04,07,05,25,10.60
2016,04,07,05,26,10.60
2016,04,07,05,27,10.50
2016,04,07,05,28,10.50
2016,04,07,05,29,10.50
2016,04,07,05,30,10.40
2016,04,07,05,31,10.30
2016,04,07,05,32,10.30
2016,04,07,05,33,10.30
2016,04,07,05,34,10.20
2016,04,07,05,35,10.10
2016,04,07,05,36,10.10
2016,04,07,05,37,10.00
2016,04,07,05,38,9.90
2016,04,07,05,39,9.80
2016,04,07,05,40,9.70
2016,04,07,05,41,9.60
2016,04,07,05,42,9.60
2016,04,07,05,43,9.60
2016,04,07,05,44,9.50
2016,04,07,05,45,9.50
2016,04,07,05,46,9.40
2016,04,07,05,47,9.40
2016,04,07,05,48,9.30
2016,04,07,05,49,9.30
2016,04,07,05,50,9.20
2016,04,07,05,51,9.20
2016,04,07,05,52,9.20
2016,04,07,05,53,9.20
2016,04,07,05,54,9.20
2016,04,07,05,55,9.20
2016,04,07,05,56,9.30
2016,04,07,05,57,9.30
2016,04,07,05,58,9.30
2016,04,07,05,59,9.30
2016,04,07,06,00,9.30
2016,04,07,06,01,9.20
2016,04,07,06,02,9.20
2016,04,07,06,03,9.20
2016,04,07,06,04,9.10
2016,04,07,06,05,9.10
2016,04,07,06,06,9.10
2016,04,07,06,07,9.20
2016,04,07,06,08,9.20
2016,04,07,06,09,9.20
2016,04,07,06,10,9.30
2016,04,07,06,11,9.30
2016,04,07,06,12,9.40
2016,04,07,06,13,9.40
2016,04,07,06,14,9.40
2016,04,07,06,15,9.40
2016,04,07,06,16,9.40
2016,04,07,06,17,9.40
2016,04,07,06,18,9.40
2016,04,07,06,19,9.40
2016,04,07,06,20,9.30
2016,04,07,06,21,9.30
2016,04,07,06,22,9.30
2016,04,07,06,23,9.30
2016,04,07,06,24,9.30
2016,04,07,06,25,9.30
2016,04,07,06,26,9.20
2016,04,07,06,27,9.20
2016,04,07,06,28,9.10
2016,04,07,06,29,9.10
2016,04,07,06,30,9.00
2016,04,07,06,31,9.00
2016,04,07,06,32,8.90
2016,04,07,06,33,8.80
2016,04,07,06,34,8.70
2016,04,07,06,35,8.60
2016,04,07,06,36,8.60
2016,04,07,06,37,8.50
2016,04,07,06,38,8.50
2016,04,07,06,39,8.50
2016,04,07,06,40,8.50
2016,04,07,06,41,8.50
2016,04,07,06,42,8.50
2016,04,07,06,43,8.40
2016,04,07,06,44,8.40
2016,04,07,06,45,8.40
2016,04,07,06,46,8.40
2016,04,07,06,47,8.30
2016,04,07,06,48,8.30
2016,04,07,06,49,8.30
2016,04,07,06,50,8.30
2016,04,07,06,51,8.30
2016,04,07,06,52,8.30
2016,04,07,06,53,8.30
2016,04,07,06,54,8.30
2016,04,07,06,55,8.30
2016,04,07,06,56,8.30
2016,04,07,06,57,8.40
2016,04,07,06,58,8.40
2016,04,07,06,59,8.40
2016,04,07,07,00,8.40
2016,04,07,07,01,8.40
2016,04,07,07,02,8.30
2016,04,07,07,03,8.30
2016,04,07,07,04,8.30
2016,04,07,07,05,8.30
2016,04,07,07,06,8.30
2016,04,07,07,07,8.30
2016,04,07,07,08,8.30
2016,04,07,07,09,8.30
2016,04,07,07,10,8.30
2016,04,07,07,11,8.30
2016,04,07,07,12,8.30
2016,04,07,07,13,8.30
2016,04,07,07,14,8.30
2016,04,07,07,15,8.30
2016,04,07,07,16,8.30
2016,04,07,07,17,8.30
2016,04,07,07,18,8.30
2016,04,07,07,19,8.30
2016,04,07,07,20,8.40
2016,04,07,07,21,8.40
2016,04,07,07,22,8.40
2016,04,07,07,23,8.40
2016,04,07,07,24,8.40
2016,04,07,07,25,8.30
2016,04,07,07,26,8.30
2016,04,07,07,27,8.30
2016,04,07,07,28,8.30
2016,04,07,07,29,8.30
2016,04,07,07,30,8.30
2016,04,07,07,31,8.30
2016,04,07,07,32,8.30
2016,04,07,07,33,8.20
2016,04,07,07,34,8.20
2016,04,07,07,35,8.20
2016,04,07,07,36,8.20
2016,04,07,07,37,8.20
2016,04,07,07,38,8.20
2016,04,07,07,39,8.20
2016,04,07,07,40,8.10
2016,04,07,07,41,8.00
2016,04,07,07,42,8.00
2016,04,07,07,43,7.90
2016,04,07,07,44,7.80
2016,04,07,07,45,7.80
2016,04,07,07,46,7.80
2016,04,07,07,47,7.80
2016,04,07,07,48,7.90
2016,04,07,07,49,8.00
2016,04,07,07,50,8.10
2016,04,07,07,51,8.10
2016,04,07,07,52,8.10
2016,04,07,07,53,8.20
2016,04,07,07,54,8.20
2016,04,07,07,55,8.30
2016,04,07,07,56,8.30
2016,04,07,07,57,8.30
2016,04,07,07,58,8.30
2016,04,07,07,59,8.40
2016,04,07,08,00,8.40
2016,04,07,08,01,8.50
2016,04,07,08,02,8.40
2016,04,07,08,03,8.40
2016,04,07,08,04,8.50
2016,04,07,08,05,8.50
2016,04,07,08,06,8.50
2016,04,07,08,07,8.40
2016,04,07,08,08,8.40
2016,04,07,08,09,8.40
2016,04,07,08,10,8.40
2016,04,07,08,11,8.50
2016,04,07,08,12,8.50
2016,04,07,08,13,8.60
2016,04,07,08,14,8.60
2016,04,07,08,15,8.60
2016,04,07,08,16,8.60
2016,04,07,08,17,8.70
2016,04,07,08,18,8.70
2016,04,07,08,19,8.80
2016,04,07,08,20,8.80
2016,04,07,08,21,8.90
2016,04,07,08,22,9.00
2016,04,07,08,23,9.00
2016,04,07,08,24,9.10
2016,04,07,08,25,9.10
2016,04,07,08,26,9.20
2016,04,07,08,27,9.20
2016,04,07,08,28,9.30
2016,04,07,08,29,9.30
2016,04,07,08,30,9.40
2016,04,07,08,31,9.40
2016,04,07,08,32,9.50
2016,04,07,08,33,9.50
2016,04,07,08,34,9.60
2016,04,07,08,35,9.60
2016,04,07,08,36,9.70
2016,04,07,08,37,9.80
2016,04,07,08,38,9.80
2016,04,07,08,39,9.90
2016,04,07,08,40,9.90
2016,04,07,08,41,10.00
2016,04,07,08,42,10.10
2016,04,07,08,43,10.10
2016,04,07,08,44,10.20
2016,04,07,08,45,10.30
2016,04,07,08,46,10.30
2016,04,07,08,47,10.40
2016,04,07,08,48,10.50
2016,04,07,08,49,10.60
2016,04,07,08,50,10.60
2016,04,07,08,51,10.70
2016,04,07,08,52,10.70
2016,04,07,08,53,10.80
2016,04,07,08,54,10.80
2016,04,07,08,55,10.80
2016,04,07,08,56,10.90
2016,04,07,08,57,11.00
2016,04,07,08,58,11.00
2016,04,07,08,59,11.10
2016,04,07,09,00,11.20
2016,04,07,09,01,11.20
2016,04,07,09,02,11.30
2016,04,07,09,03,11.30
2016,04,07,09,04,11.40
2016,04,07,09,05,11.40
2016,04,07,09,06,11.50
2016,04,07,09,07,11.50
2016,04,07,09,08,11.50
2016,04,07,09,09,11.60
2016,04,07,09,10,11.60
2016,04,07,09,11,11.60
2016,04,07,09,12,11.60
2016,04,07,09,13,11.70
2016,04,07,09,14,11.70
2016,04,07,09,15,11.80
2016,04,07,09,16,11.80
2016,04,07,09,17,11.70
2016,04,07,09,18,11.70
2016,04,07,09,19,11.80
2016,04,07,09,20,11.80
2016,04,07,09,21,11.90
2016,04,07,09,22,12.00
2016,04,07,09,23,12.10
2016,04,07,09,24,12.20
2016,04,07,09,25,12.30
2016,04,07,09,26,12.30
2016,04,07,09,27,12.40
2016,04,07,09,28,12.40
2016,04,07,09,29,12.50
2016,04,07,09,30,12.60
2016,04,07,09,31,12.70
2016,04,07,09,32,12.80
2016,04,07,09,33,12.80
2016,04,07,09,34,12.80
2016,04,07,09,35,12.80
2016,04,07,09,36,12.70
2016,04,07,09,37,12.50
2016,04,07,09,38,12.40
2016,04,07,09,39,12.30
2016,04,07,09,40,12.30
2016,04,07,09,41,12.20
2016,04,07,09,42,12.20
2016,04,07,09,43,12.20
2016,04,07,09,44,12.10
2016,04,07,09,45,12.20
2016,04,07,09,46,12.20
2016,04,07,09,47,12.30
2016,04,07,09,48,12.30
2016,04,07,09,49,12.40
2016,04,07,09,50,12.50
2016,04,07,09,51,12.60
2016,04,07,09,52,12.70
2016,04,07,09,53,12.80
2016,04,07,09,54,12.90
2016,04,07,09,55,13.00
2016,04,07,09,56,13.10
2016,04,07,09,57,13.10
2016,04,07,09,58,13.20
2016,04,07,09,59,13.30
2016,04,07,10,00,13.40
2016,04,07,10,01,13.50
2016,04,07,10,02,13.60
2016,04,07,10,03,13.60
2016,04,07,10,04,13.70
2016,04,07,10,05,13.70
2016,04,07,10,06,13.80
2016,04,07,10,07,13.70
2016,04,07,10,08,13.70
2016,04,07,10,09,13.70
2016,04,07,10,10,13.70
2016,04,07,10,11,13.70
2016,04,07,10,12,13.70
2016,04,07,10,13,13.70
2016,04,07,10,14,13.70
2016,04,07,10,15,13.60
2016,04,07,10,16,13.50
2016,04,07,10,17,13.40
2016,04,07,10,18,13.40
2016,04,07,10,19,13.40
2016,04,07,10,20,13.40
2016,04,07,10,21,13.40
2016,04,07,10,22,13.40
2016,04,07,10,23,13.40
2016,04,07,10,24,13.40
2016,04,07,10,25,13.40
2016,04,07,10,26,13.40
2016,04,07,10,27,13.40
2016,04,07,10,28,13.40
2016,04,07,11,19,17.10
2016,04,07,11,20,17.00
2016,04,07,11,21,16.90
2016,04,07,11,22,16.70
2016,04,07,11,23,16.60
2016,04,07,11,24,16.50
2016,04,07,11,25,16.30
2016,04,07,11,26,16.20
2016,04,07,11,27,16.10
2016,04,07,11,28,16.00
2016,04,07,11,29,15.90
2016,04,07,11,30,15.80
2016,04,07,11,31,15.60
2016,04,07,11,32,15.60
2016,04,07,11,33,15.60
2016,04,07,11,34,15.60
2016,04,07,11,35,15.60
2016,04,07,11,36,15.70
2016,04,07,11,37,15.70
2016,04,07,11,38,15.80
2016,04,07,11,39,15.90
2016,04,07,11,40,15.90
2016,04,07,11,41,16.00
2016,04,07,11,42,16.00
2016,04,07,11,43,16.00
2016,04,07,11,44,16.10
2016,04,07,11,45,16.10
2016,04,07,11,46,16.10
2016,04,07,11,47,16.10
2016,04,07,11,48,16.20
2016,04,07,11,49,16.20
2016,04,07,11,50,16.10
2016,04,07,11,51,16.10
2016,04,07,11,52,16.10
2016,04,07,11,53,16.10
2016,04,07,11,54,16.10
2016,04,07,11,55,16.10
2016,04,07,11,56,16.10
2016,04,07,11,57,16.00
2016,04,07,11,58,16.00
2016,04,07,11,59,15.90
2016,04,07,12,00,15.80
2016,04,07,12,01,15.80
2016,04,07,12,02,15.80
2016,04,07,12,03,15.70
2016,04,07,12,04,15.70
2016,04,07,12,05,15.70
2016,04,07,12,06,15.80
2016,04,07,12,07,15.80
2016,04,07,12,08,15.90
2016,04,07,12,09,16.10
2016,04,07,12,10,16.20
2016,04,07,12,11,16.30
2016,04,07,12,12,16.40
2016,04,07,12,13,16.40
2016,04,07,12,14,16.50
2016,04,07,12,15,16.60
2016,04,07,12,16,16.70
2016,04,07,12,17,16.80
2016,04,07,12,18,16.80
2016,04,07,12,19,16.90
2016,04,07,12,20,16.90
2016,04,07,12,21,17.00
2016,04,07,12,22,17.10
2016,04,07,12,23,17.30
2016,04,07,12,24,17.40
2016,04,07,12,25,17.60
2016,04,07,12,26,17.70
2016,04,07,12,27,17.90
2016,04,07,12,28,18.10
2016,04,07,12,29,18.20
2016,04,07,12,30,18.30
2016,04,07,12,31,18.40
2016,04,07,12,32,18.50
2016,04,07,12,33,18.50
2016,04,07,12,34,18.40
2016,04,07,12,35,18.40
2016,04,07,12,36,18.40
2016,04,07,12,37,18.30
2016,04,07,12,38,18.20
2016,04,07,12,39,18.20
2016,04,07,12,40,18.10
2016,04,07,12,41,18.00
2016,04,07,12,42,18.10
2016,04,07,12,43,18.10
2016,04,07,12,44,18.10
2016,04,07,12,45,18.20
2016,04,07,12,46,18.20
2016,04,07,12,47,18.20
2016,04,07,12,48,18.30
2016,04,07,12,49,18.30
2016,04,07,12,50,18.40
2016,04,07,12,51,18.50
2016,04,07,12,52,18.60
2016,04,07,12,53,18.70
2016,04,07,12,54,18.70
2016,04,07,12,55,18.80
2016,04,07,12,56,18.90
2016,04,07,12,57,19.00
2016,04,07,12,58,19.20
2016,04,07,12,59,19.30
2016,04,07,13,00,19.30
2016,04,07,13,01,19.30
2016,04,07,13,02,19.30
2016,04,07,13,03,19.20
2016,04,07,13,04,19.10
2016,04,07,13,05,18.90
2016,04,07,13,06,18.80
2016,04,07,13,07,18.80
2016,04,07,13,08,18.80
2016,04,07,13,09,18.70
2016,04,07,13,10,18.70
2016,04,07,13,11,18.70
2016,04,07,13,12,18.60
2016,04,07,13,13,18.60
2016,04,07,13,14,18.50
2016,04,07,13,15,18.40
2016,04,07,13,16,18.20
2016,04,07,13,17,18.00
2016,04,07,13,18,17.80
2016,04,07,13,19,17.60
2016,04,07,13,20,17.60
2016,04,07,13,21,17.50
2016,04,07,13,22,17.40
2016,04,07,13,23,17.40
2016,04,07,13,24,17.40
2016,04,07,13,25,17.40
2016,04,07,13,26,17.40
2016,04,07,13,27,17.30
2016,04,07,13,28,17.40
2016,04,07,13,29,17.50
2016,04,07,13,30,17.60
2016,04,07,13,31,17.80
2016,04,07,13,32,18.10
2016,04,07,13,33,18.40
2016,04,07,13,34,18.70
2016,04,07,13,35,18.90
2016,04,07,13,36,19.10
2016,04,07,13,37,19.30
2016,04,07,13,38,19.40
2016,04,07,13,39,19.50
2016,04,07,13,40,19.60
2016,04,07,13,41,19.70
2016,04,07,13,42,19.90
2016,04,07,13,43,20.00
2016,04,07,13,44,20.10
2016,04,07,13,45,20.20
2016,04,07,13,46,20.30
2016,04,07,13,47,20.30
2016,04,07,13,48,20.30
2016,04,07,13,49,20.30
2016,04,07,13,50,20.30
2016,04,07,13,51,20.10
2016,04,07,13,52,20.00
2016,04,07,13,53,19.90
2016,04,07,13,54,19.90
2016,04,07,13,55,19.90
2016,04,07,13,56,19.90
2016,04,07,13,57,19.90
2016,04,07,13,58,20.00
2016,04,07,13,59,20.00
2016,04,07,14,00,19.90
2016,04,07,14,01,19.80
2016,04,07,14,02,19.80
2016,04,07,14,03,19.80
2016,04,07,14,04,19.80
2016,04,07,14,05,19.90
2016,04,07,14,06,19.90
2016,04,07,14,07,19.90
2016,04,07,14,08,19.90
2016,04,07,14,09,20.00
2016,04,07,14,10,20.10
2016,04,07,14,11,20.10
2016,04,07,14,12,20.10
2016,04,07,14,13,20.10
2016,04,07,14,14,20.10
2016,04,07,14,15,20.10
2016,04,07,14,16,20.20
2016,04,07,14,17,20.20
2016,04,07,14,18,20.20
2016,04,07,14,19,20.30
2016,04,07,14,20,20.20
2016,04,07,14,21,20.20
2016,04,07,14,22,20.10
2016,04,07,14,23,20.00
2016,04,07,14,24,20.00
2016,04,07,14,25,19.90
2016,04,07,14,26,19.90
2016,04,07,14,27,20.00
2016,04,07,14,28,19.80
2016,04,07,14,29,19.80
2016,04,07,14,30,19.70
2016,04,07,14,31,19.60
2016,04,07,14,32,19.60
2016,04,07,14,33,19.50
2016,04,07,14,34,19.40
2016,04,07,14,35,19.40
2016,04,07,14,36,19.40
2016,04,07,14,37,19.50
2016,04,07,14,38,19.50
2016,04,07,14,39,19.50
2016,04,07,14,40,19.60
2016,04,07,14,41,19.70
2016,04,07,14,42,19.70
2016,04,07,14,43,19.80
2016,04,07,14,44,19.80
2016,04,07,14,45,19.80
2016,04,07,14,46,19.80
2016,04,07,14,47,19.70
2016,04,07,14,48,19.70
2016,04,07,14,49,19.70
2016,04,07,14,50,19.60
2016,04,07,14,51,19.60
2016,04,07,14,52,19.60
2016,04,07,14,53,19.60
2016,04,07,14,54,19.70
2016,04,07,14,55,19.70
2016,04,07,14,56,19.80
2016,04,07,14,57,19.90
2016,04,07,14,58,19.90
2016,04,07,14,59,19.90
2016,04,07,15,00,19.90
2016,04,07,15,01,19.80
2016,04,07,15,02,19.80
2016,04,07,15,03,19.80
2016,04,07,15,04,19.80
2016,04,07,15,05,19.80
2016,04,07,15,06,19.80
2016,04,07,15,07,19.90
2016,04,07,15,08,19.90
2016,04,07,15,09,19.90
2016,04,07,15,10,19.90
2016,04,07,15,11,19.80
2016,04,07,15,12,19.80
2016,04,07,15,13,19.90
2016,04,07,15,14,20.00
2016,04,07,15,15,20.00
2016,04,07,15,16,20.10
2016,04,07,15,17,20.20
2016,04,07,15,18,20.20
2016,04,07,15,19,20.30
2016,04,07,15,20,20.40
2016,04,07,15,21,20.40
2016,04,07,15,22,20.50
2016,04,07,15,23,20.50
2016,04,07,15,24,20.60
2016,04,07,15,25,20.70
2016,04,07,15,26,20.70
2016,04,07,15,27,20.80
2016,04,07,15,28,20.80
2016,04,07,15,29,20.80
2016,04,07,15,30,20.90
2016,04,07,15,31,21.00
2016,04,07,15,32,21.10
2016,04,07,15,33,21.20
2016,04,07,15,34,21.30
2016,04,07,15,35,21.30
2016,04,07,15,36,21.30
2016,04,07,15,37,21.40
2016,04,07,15,38,21.40
2016,04,07,15,39,21.50
2016,04,07,15,40,21.50
2016,04,07,15,41,21.60
2016,04,07,15,42,21.70
2016,04,07,15,43,21.80
2016,04,07,15,44,21.90
2016,04,07,15,45,21.90
2016,04,07,15,46,22.10
2016,04,07,15,47,22.20
2016,04,07,15,48,22.20
2016,04,07,15,49,22.20
2016,04,07,15,50,22.20
2016,04,07,15,51,22.20
2016,04,07,15,52,22.10
2016,04,07,15,53,22.10
2016,04,07,15,54,22.20
2016,04,07,15,55,22.20
2016,04,07,15,56,22.30
2016,04,07,15,57,22.30
2016,04,07,15,58,22.40
2016,04,07,15,59,22.40
2016,04,07,16,00,22.30
2016,04,07,16,01,22.30
2016,04,07,16,02,22.20
2016,04,07,16,03,22.20
2016,04,07,16,04,22.10
2016,04,07,16,05,22.00
2016,04,07,16,06,21.90
2016,04,07,16,07,21.80
2016,04,07,16,08,21.80
2016,04,07,16,09,21.80
2016,04,07,16,10,21.80
2016,04,07,16,11,21.80
2016,04,07,16,12,21.80
2016,04,07,16,13,21.80
2016,04,07,16,14,21.90
2016,04,07,16,15,21.90
2016,04,07,16,16,21.90
2016,04,07,16,17,21.90
2016,04,07,16,18,21.90
2016,04,07,16,19,21.90
2016,04,07,16,20,21.90
2016,04,07,16,21,21.90
2016,04,07,16,22,21.90
2016,04,07,16,23,21.80
2016,04,07,16,24,21.70
2016,04,07,16,25,21.60
2016,04,07,16,26,21.60
2016,04,07,16,27,21.60
2016,04,07,16,28,21.60
2016,04,07,16,29,21.70
2016,04,07,16,30,21.70
2016,04,07,16,31,21.70
2016,04,07,16,32,21.70
2016,04,07,16,33,21.70
2016,04,07,16,34,21.80
2016,04,07,16,35,21.80
2016,04,07,16,36,21.80
2016,04,07,16,37,21.90
2016,04,07,16,38,21.90
2016,04,07,16,39,21.90
2016,04,07,16,40,21.80
2016,04,07,16,41,21.70
2016,04,07,16,42,21.60
2016,04,07,16,43,21.50
2016,04,07,16,44,21.40
2016,04,07,16,45,21.40
2016,04,07,16,46,21.30
2016,04,07,16,47,21.30
2016,04,07,16,48,21.30
2016,04,07,16,49,21.30
2016,04,07,16,50,21.30
2016,04,07,16,51,21.30
2016,04,07,16,52,21.20
2016,04,07,16,53,21.20
2016,04,07,16,54,21.10
2016,04,07,16,55,21.10
2016,04,07,16,56,21.00
2016,04,07,16,57,20.90
2016,04,07,16,58,20.90
2016,04,07,16,59,20.80
2016,04,07,17,00,20.70
2016,04,07,17,01,20.70
2016,04,07,17,02,20.60
2016,04,07,17,03,20.60
2016,04,07,17,04,20.60
2016,04,07,17,05,20.60
2016,04,07,17,06,20.60
2016,04,07,17,07,20.70
2016,04,07,17,08,20.70
2016,04,07,17,09,20.70
2016,04,07,17,10,20.80
2016,04,07,17,11,20.80
2016,04,07,17,12,20.80
2016,04,07,17,13,20.80
2016,04,07,17,14,20.80
2016,04,07,17,15,20.80
2016,04,07,17,16,20.80
2016,04,07,17,17,20.90
2016,04,07,17,18,20.90
2016,04,07,17,19,20.90
2016,04,07,17,20,21.00
2016,04,07,17,21,21.00
2016,04,07,17,22,21.10
2016,04,07,17,23,21.10
2016,04,07,17,24,21.10
2016,04,07,17,25,21.10
2016,04,07,17,26,21.10
2016,04,07,17,27,21.20
2016,04,07,17,28,21.20
2016,04,07,17,29,21.30
2016,04,07,17,30,21.30
2016,04,07,17,31,21.30
2016,04,07,17,32,21.30
2016,04,07,17,33,21.30
2016,04,07,17,34,21.40
2016,04,07,17,35,21.40
2016,04,07,17,36,21.40
2016,04,07,17,37,21.40
2016,04,07,17,38,21.50
2016,04,07,17,39,21.50
2016,04,07,17,40,21.50
2016,04,07,17,41,21.50
2016,04,07,17,42,21.50
2016,04,07,17,43,21.50
2016,04,07,17,44,21.50
2016,04,07,17,45,21.50
2016,04,07,17,46,21.50
2016,04,07,17,47,21.50
2016,04,07,17,48,21.40
2016,04,07,17,49,21.40
2016,04,07,17,50,21.40
2016,04,07,17,51,21.40
2016,04,07,17,52,21.40
2016,04,07,17,53,21.40
2016,04,07,17,54,21.50
2016,04,07,17,55,21.50
2016,04,07,17,56,21.50
2016,04,07,17,57,21.50
2016,04,07,17,58,21.40
2016,04,07,17,59,21.40
2016,04,07,18,00,21.40
2016,04,07,18,01,21.40
2016,04,07,18,02,21.40
2016,04,07,18,03,21.40
2016,04,07,18,04,21.30
2016,04,07,18,05,21.30
2016,04,07,18,06,21.20
2016,04,07,18,07,21.20
2016,04,07,18,08,21.20
2016,04,07,18,09,21.10
2016,04,07,18,10,21.10
2016,04,07,18,11,21.00
2016,04,07,18,12,20.90
2016,04,07,18,13,20.90
2016,04,07,18,14,20.80
2016,04,07,18,15,20.80
2016,04,07,18,16,20.80
2016,04,07,18,17,20.70
2016,04,07,18,18,20.70
2016,04,07,18,19,20.70
2016,04,07,18,20,20.70
2016,04,07,18,21,20.70
2016,04,07,18,22,20.60
2016,04,07,18,23,20.60
2016,04,07,18,24,20.50
2016,04,07,18,25,20.40